Date String (YYYY-MM-DD hh:mm:ss) UTC,Instrument flags,Ambient pressure (hPa),Sample flow (lpm),Bypass flow (lpm),Sample temperature (°C),Ambient temperature (°C),ASC tube jacket temperature (°C),LED temperature (°C),Box temperature (°C),Sample RH (%),Span deviation,Mass concentration (μg/m³),Mass concentration (μg/m³),Mass concentration (μg/m³)
DateTimeUTC,F1_M11,P_M11,Q1_M11,Q2_M11,T1_M11,T2_M11,T3_M11,T4_M11,T5_M11,U1_M11,ZSPAN_M11,X0_M11,X2_M11,X1_M11
2023-05-16 22:00:00,,0832.1,5.00,0.00,29.4,27.2,00.0,37.7,31.0,19.3,0000.0,0011.23,0004.82,0003.54
2023-05-16 22:01:00,,0832.0,4.98,0.00,29.4,27.4,00.0,37.7,31.1,19.5,0000.0,0011.20,0004.83,0003.54
2023-05-16 22:02:00,,0832.0,5.01,0.00,29.4,27.6,00.0,37.7,31.1,18.9,0000.0,0011.41,0004.82,0003.53
2023-05-16 22:03:00,,0832.0,5.00,0.00,29.5,27.8,00.0,37.8,31.1,19.7,0000.0,0012.72,0004.90,0003.54
2023-05-16 22:04:00,,0832.0,5.01,0.00,29.5,27.9,00.0,37.8,31.2,20.4,0000.0,0013.81,0004.88,0003.54
2023-05-16 22:05:00,,0832.0,5.01,0.00,29.5,28.0,00.0,37.8,31.2,20.5,0000.0,0013.90,0004.87,0003.55
2023-05-16 22:06:00,,0832.0,4.99,0.00,29.5,28.1,00.0,37.8,31.2,19.9,0000.0,0013.90,0004.87,0003.56
2023-05-16 22:07:00,,0832.0,5.00,0.00,29.5,28.2,00.0,37.8,31.2,20.2,0000.0,0013.96,0004.85,0003.57
2023-05-16 22:08:00,,0832.0,4.99,0.00,29.6,28.3,00.0,37.8,31.3,20.3,0000.0,0014.00,0004.88,0003.56
2023-05-16 22:09:00,,0831.9,5.00,0.00,29.6,28.1,00.0,37.8,31.3,21.1,0000.0,0014.55,0004.93,0003.57
2023-05-16 22:10:00,,0831.9,5.00,0.00,29.6,26.6,00.0,37.8,31.1,21.3,0000.0,0014.68,0004.98,0003.57
2023-05-16 22:11:00,,0832.0,5.01,0.00,29.5,25.8,00.0,37.7,31.0,19.9,0000.0,0014.43,0004.99,0003.58
2023-05-16 22:12:00,,0832.0,5.02,0.00,29.5,25.9,00.0,37.7,30.8,20.3,0000.0,0013.77,0004.98,0003.59
2023-05-16 22:13:00,,0832.0,5.00,0.00,29.4,26.2,00.0,37.7,30.8,20.7,0000.0,0013.50,0004.97,0003.61
2023-05-16 22:14:00,,0831.9,4.99,0.00,29.4,26.5,00.0,37.7,30.9,21.0,0000.0,0012.22,0004.86,0003.61
2023-05-16 22:15:00,,0832.0,5.00,0.00,29.4,26.8,00.0,37.7,30.9,21.0,0000.0,0011.09,0004.83,0003.62
2023-05-16 22:16:00,,0832.0,5.00,0.00,29.4,27.1,00.0,37.7,31.0,20.8,0000.0,0011.39,0004.91,0003.61
2023-05-16 22:17:00,,0832.0,5.00,0.00,29.4,27.3,00.0,37.7,31.0,21.4,0000.0,0011.80,0004.92,0003.61
2023-05-16 22:18:00,,0832.0,5.01,0.00,29.4,27.5,00.0,37.7,31.1,20.4,0000.0,0011.96,0004.91,0003.60
2023-05-16 22:19:00,,0832.0,4.99,0.00,29.4,27.7,00.0,37.7,31.1,20.2,0000.0,0012.02,0004.93,0003.61
2023-05-16 22:20:00,,0832.0,4.99,0.00,29.4,27.8,00.0,37.7,31.1,20.5,0000.0,0011.80,0004.97,0003.62
2023-05-16 22:21:00,,0832.0,5.00,0.00,29.4,27.9,00.0,37.7,31.1,19.6,0000.0,0011.42,0004.95,0003.62
2023-05-16 22:22:00,,0831.9,5.00,0.00,29.5,28.0,00.0,37.8,31.2,20.6,0000.0,0011.55,0004.99,0003.62
2023-05-16 22:23:00,,0832.0,5.00,0.00,29.5,28.1,00.0,37.8,31.2,20.6,0000.0,0011.51,0004.95,0003.62
2023-05-16 22:24:00,,0832.0,5.01,0.00,29.5,28.2,00.0,37.8,31.2,20.3,0000.0,0011.55,0004.95,0003.62
2023-05-16 22:25:00,,0831.9,5.00,0.00,29.6,28.2,00.0,37.8,31.3,20.5,0000.0,0011.96,0005.03,0003.62
2023-05-16 22:26:00,,0832.0,4.98,0.00,29.6,28.1,00.0,37.8,31.3,19.5,0000.0,0012.18,0005.05,0003.62
2023-05-16 22:27:00,,0831.9,5.00,0.00,29.6,26.6,00.0,37.8,31.1,20.3,0000.0,0011.53,0004.97,0003.62
2023-05-16 22:28:00,,0831.9,5.01,0.00,29.5,25.8,00.0,37.7,31.0,20.5,0000.0,0011.56,0004.94,0003.62
2023-05-16 22:29:00,,0831.9,5.01,0.00,29.5,25.9,00.0,37.7,30.8,20.2,0000.0,0011.95,0004.95,0003.62
2023-05-16 22:30:00,,0831.9,5.00,0.00,29.4,26.1,00.0,37.7,30.8,19.9,0000.0,0013.00,0004.98,0003.62
2023-05-16 22:31:00,,0831.9,5.00,0.00,29.4,26.4,00.0,37.7,30.9,20.4,0000.0,0012.69,0004.92,0003.61
2023-05-16 22:32:00,,0831.9,5.00,0.00,29.3,26.8,00.0,37.7,30.9,21.9,0000.0,0012.61,0004.91,0003.61
2023-05-16 22:33:00,,0831.8,5.00,0.00,29.4,27.0,00.0,37.7,31.0,22.1,0000.0,0012.38,0004.83,0003.60
2023-05-16 22:34:00,,0831.8,4.99,0.00,29.4,27.3,00.0,37.7,31.0,21.4,0000.0,0012.60,0004.88,0003.61
2023-05-16 22:35:00,,0831.8,5.00,0.00,29.4,27.5,00.0,37.7,31.0,21.0,0000.0,0012.58,0004.87,0003.60
2023-05-16 22:36:00,,0831.8,4.99,0.00,29.4,27.7,00.0,37.7,31.1,21.1,0000.0,0012.21,0004.80,0003.59
2023-05-16 22:37:00,,0831.8,5.01,0.00,29.4,27.8,00.0,37.7,31.1,20.8,0000.0,0011.85,0004.77,0003.59
2023-05-16 22:38:00,,0831.8,5.01,0.00,29.4,27.9,00.0,37.7,31.1,21.4,0000.0,0012.99,0004.80,0003.59
2023-05-16 22:39:00,,0831.9,5.00,0.00,29.5,28.0,00.0,37.7,31.2,21.8,0000.0,0012.57,0004.81,0003.58
2023-05-16 22:40:00,,0831.8,4.99,0.00,29.5,28.1,00.0,37.8,31.2,22.0,0000.0,0011.94,0004.85,0003.58
2023-05-16 22:41:00,,0831.9,5.01,0.00,29.5,28.2,00.0,37.8,31.2,21.2,0000.0,0010.92,0004.83,0003.58
2023-05-16 22:42:00,,0831.9,5.01,0.00,29.5,28.3,00.0,37.8,31.3,21.0,0000.0,0010.81,0004.81,0003.58
2023-05-16 22:43:00,,0831.8,4.99,0.00,29.6,28.3,00.0,37.8,31.3,20.9,0000.0,0010.77,0004.79,0003.58
2023-05-16 22:44:00,,0831.8,4.99,0.00,29.6,28.3,00.0,37.8,31.3,19.8,0000.0,0011.05,0004.87,0003.58
2023-05-16 22:45:00,,0831.9,5.00,0.00,29.6,26.9,00.0,37.8,31.1,20.3,0000.0,0011.17,0004.90,0003.58
2023-05-16 22:46:00,,0832.2,5.02,0.00,29.5,25.9,00.0,37.7,31.0,20.7,0000.0,0011.35,0004.91,0003.59
2023-05-16 22:47:00,,0831.9,5.01,0.00,29.5,25.9,00.0,37.7,30.8,20.6,0000.0,0011.48,0004.96,0003.59
2023-05-16 22:48:00,,0831.7,4.99,0.00,29.4,26.1,00.0,37.7,30.8,20.5,0000.0,0011.39,0005.00,0003.59
2023-05-16 22:49:00,,0832.1,5.00,0.00,29.4,26.5,00.0,37.7,30.9,20.6,0000.0,0010.16,0004.95,0003.60
2023-05-16 22:50:00,,0832.2,5.00,0.00,29.4,26.8,00.0,37.7,30.9,20.4,0000.0,0010.38,0004.98,0003.62
2023-05-16 22:51:00,,0832.0,5.02,0.00,29.4,27.1,00.0,37.7,31.0,20.4,0000.0,0010.55,0004.98,0003.63
2023-05-16 22:52:00,,0831.8,5.00,0.00,29.4,27.3,00.0,37.7,31.0,21.3,0000.0,0010.54,0004.95,0003.63
2023-05-16 22:53:00,,0831.8,4.98,0.00,29.4,27.5,00.0,37.7,31.1,21.0,0000.0,0011.18,0004.98,0003.63
2023-05-16 22:54:00,,0831.8,5.01,0.00,29.4,27.7,00.0,37.7,31.1,20.3,0000.0,0011.89,0005.03,0003.63
2023-05-16 22:55:00,,0831.9,5.02,0.00,29.4,27.9,00.0,37.7,31.1,20.7,0000.0,0012.00,0004.96,0003.63
2023-05-16 22:56:00,,0831.8,4.98,0.00,29.5,28.0,00.0,37.7,31.2,20.5,0000.0,0012.17,0004.94,0003.62
2023-05-16 22:57:00,,0831.7,5.00,0.00,29.5,28.1,00.0,37.8,31.2,20.0,0000.0,0011.97,0004.91,0003.63
2023-05-16 22:58:00,,0831.8,5.01,0.00,29.5,28.2,00.0,37.8,31.2,19.8,0000.0,0012.05,0004.91,0003.64
2023-05-16 22:59:00,,0831.7,5.00,0.00,29.5,28.3,00.0,37.8,31.3,20.1,0000.0,0012.02,0004.89,0003.63
